WADD

Denpasar/Ngurah Rai International Airport

Airport
ICAO code
WADD
IATA Code
DPS
Summary
ICAO Region
APAC
ICAO Territory
Location

Denpasar, Badung, Bali

Serving
Denpasar
Elevation
4 ft
Coordinates
8° 44' 53" S , 115° 10' 3" E
KCC
Metar
WADD 152030Z 19002KT 9999 FEW017 26/25 Q1010 NOSIG

International airport serving Bali and Denpasar.

Climatology

Tropical Savanna climate (Köppen climate classification Aw) - monthly mean temperature above 18°C in every month of the year and a pronounced dry season.

Airport map

Aerial View

SKYbrary Partners:

Safety knowledge contributed by: